Location: Eurasberg
(48.3353°N, 11.0839°E)
Time: 19:40:46
(UTC+00:00)

Cosmos 1758 - Pass Details

Date: 18 January 2026
Orbit: 479 x 500 km, 82.5° (Epoch: 13 February)

Event Time Altitude Azimuth Distance (km) Brightness Sun altitude
Rises 05:29:37 0° 211° (SSW) 2,575 6.6 -14.6°
Reaches altitude 10° 05:31:53 10° 221° (SW) 1,694 5.6 -14.2°
Maximum altitude 05:35:14 32° 286° (WNW) 875 3.8 -13.7°
Drops below altitude 10° 05:38:36 10° 351° (N) 1,695 5.6 -13.2°
Sets 05:40:52 0° 2° (N) 2,578 6.6 -12.8°
